PHAVA EHRD-LECH

Flight info

Callsign PHAVA
Flight time 1h 43m
Altitude 33000
Route WOODY N872 MEDIL/N0490F450 N872 LESDO DCT OLZOM DCT KETEX DCT ARTAX DCT FISTO DCT ANETO N860 RIMES
Aircraft C750/M-SBDE3FGHRWXY/S

Departure

Time 2026-05-01 12:17
Airport Rotterdam The Hague Airport (EHRD)

Arrival

Time 2026-05-01 14:00
Airport Castellón-Costa Azahar Airport (LECH)
Time Latitude Longitude Altitude Speed Heading
2026-05-01 12:08 51.94842 4.43854 -64 ft 0 kts 328°
2026-05-01 12:13 51.94869 4.43843 -10 ft 8 kts 11°
2026-05-01 12:14 51.94919 4.43846 -10 ft 7 kts 340°
2026-05-01 12:14 51.94967 4.43801 -10 ft 9 kts 327°
2026-05-01 12:14 51.95042 4.43722 -10 ft 16 kts 327°
2026-05-01 12:14 51.95136 4.43619 -9 ft 16 kts 326°
2026-05-01 12:15 51.95225 4.43527 -9 ft 15 kts 328°
2026-05-01 12:15 51.95254 4.43437 -9 ft 11 kts 241°
2026-05-01 12:15 51.95198 4.43293 -9 ft 19 kts 237°
2026-05-01 12:15 51.95153 4.43152 -9 ft 12 kts 274°
2026-05-01 12:16 51.95235 4.43097 -8 ft 17 kts
2026-05-01 12:16 51.95346 4.43171 -8 ft 21 kts 52°
2026-05-01 12:16 51.95484 4.43509 -8 ft 78 kts 57°
2026-05-01 12:16 51.95951 4.44681 57 ft 150 kts 61°
2026-05-01 12:17 51.96584 4.46226 398 ft 180 kts 60°
2026-05-01 12:17 51.97309 4.48061 735 ft 209 kts 64°
2026-05-01 12:17 51.98049 4.50214 1587 ft 215 kts 67°
2026-05-01 12:17 51.98616 4.52282 3232 ft 188 kts 73°
2026-05-01 12:18 51.99157 4.54272 4134 ft 204 kts 70°
2026-05-01 12:18 51.99837 4.56388 4943 ft 214 kts 68°
2026-05-01 12:18 52.00281 4.58709 5380 ft 225 kts 93°
2026-05-01 12:18 51.99910 4.61255 5824 ft 244 kts 121°
2026-05-01 12:19 51.98667 4.63198 6389 ft 255 kts 150°
2026-05-01 12:19 51.97098 4.64495 7496 ft 253 kts 154°
2026-05-01 12:19 51.95495 4.65731 8478 ft 259 kts 158°
2026-05-01 12:19 51.93683 4.66159 9226 ft 273 kts 180°
2026-05-01 12:20 51.91872 4.65341 9681 ft 270 kts 204°
2026-05-01 12:20 51.90461 4.63523 10157 ft 261 kts 224°
2026-05-01 12:20 51.89350 4.61041 10642 ft 282 kts 231°
2026-05-01 12:20 51.88217 4.58341 11157 ft 298 kts 231°
2026-05-01 12:21 51.86725 4.55976 11577 ft 307 kts 208°
2026-05-01 12:21 51.84723 4.54679 12074 ft 316 kts 193°
2026-05-01 12:21 51.82584 4.53813 12620 ft 326 kts 191°
2026-05-01 12:21 51.80310 4.52923 13177 ft 338 kts 191°
2026-05-01 12:22 51.78001 4.51964 13708 ft 348 kts 192°
2026-05-01 12:22 51.75628 4.50964 14275 ft 355 kts 192°
2026-05-01 12:22 51.73229 4.49975 14954 ft 357 kts 192°
2026-05-01 12:22 51.70806 4.48989 15574 ft 361 kts 192°
2026-05-01 12:23 51.68367 4.47989 16228 ft 364 kts 192°
2026-05-01 12:23 51.65851 4.46952 16904 ft 368 kts 192°
2026-05-01 12:23 51.63368 4.45934 17576 ft 371 kts 192°
2026-05-01 12:23 51.60853 4.44908 18284 ft 375 kts 192°
2026-05-01 12:24 51.58307 4.43868 18927 ft 379 kts 192°
2026-05-01 12:24 51.55743 4.42819 19563 ft 383 kts 192°
2026-05-01 12:24 51.53147 4.41760 20193 ft 387 kts 192°
2026-05-01 12:24 51.50521 4.40692 20806 ft 392 kts 192°
2026-05-01 12:25 51.47866 4.39612 21469 ft 396 kts 192°
2026-05-01 12:25 51.42467 4.37420 22681 ft 405 kts 192°
2026-05-01 12:25 51.39762 4.36043 23206 ft 413 kts 201°
2026-05-01 12:26 51.37165 4.34039 23830 ft 416 kts 204°
2026-05-01 12:26 51.31883 4.30058 24863 ft 423 kts 203°
2026-05-01 12:26 51.29217 4.28045 25401 ft 426 kts 203°
2026-05-01 12:27 51.26540 4.25990 25928 ft 428 kts 203°
2026-05-01 12:27 51.21109 4.21874 26930 ft 435 kts 203°
2026-05-01 12:28 51.15568 4.17858 27926 ft 440 kts 198°
2026-05-01 12:28 51.12659 4.16305 28421 ft 443 kts 197°
2026-05-01 12:28 51.06805 4.13056 29487 ft 449 kts 197°
2026-05-01 12:29 51.03842 4.11427 29958 ft 452 kts 197°
2026-05-01 12:29 51.00850 4.09813 30430 ft 455 kts 197°
2026-05-01 12:29 50.94827 4.06522 31294 ft 460 kts 197°
2026-05-01 12:30 50.89823 4.03794 32364 ft 456 kts 197°
2026-05-01 12:30 50.86844 4.02095 32954 ft 455 kts 199°
2026-05-01 12:30 50.83915 4.00202 33556 ft 454 kts 200°
2026-05-01 12:31 50.81000 3.98306 34213 ft 452 kts 200°
2026-05-01 12:31 50.78086 3.96444 34732 ft 452 kts 200°
2026-05-01 12:31 50.75132 3.94575 35263 ft 451 kts 200°
2026-05-01 12:31 50.72231 3.92722 35796 ft 450 kts 200°
2026-05-01 12:32 50.69333 3.90864 36324 ft 448 kts 200°
2026-05-01 12:32 50.63554 3.87191 37358 ft 447 kts 200°
2026-05-01 12:32 50.60671 3.85361 37902 ft 446 kts 200°
2026-05-01 12:33 50.57804 3.83540 38425 ft 445 kts 200°
2026-05-01 12:33 50.54967 3.81601 38901 ft 445 kts 201°
2026-05-01 12:33 50.52134 3.79665 39319 ft 443 kts 201°
2026-05-01 12:33 50.49331 3.77779 39679 ft 444 kts 201°
2026-05-01 12:34 50.46450 3.75822 40010 ft 446 kts 201°
2026-05-01 12:34 50.43607 3.73870 40388 ft 446 kts 201°
2026-05-01 12:34 50.40798 3.71956 40757 ft 447 kts 201°
2026-05-01 12:34 50.37938 3.70023 41068 ft 449 kts 202°
2026-05-01 12:35 50.35028 3.68053 41481 ft 449 kts 202°
2026-05-01 12:35 50.32213 3.66143 41967 ft 447 kts 203°
2026-05-01 12:35 50.29354 3.64209 42282 ft 449 kts 203°
2026-05-01 12:35 50.26481 3.62274 42630 ft 450 kts 203°
2026-05-01 12:36 50.23602 3.60335 43032 ft 451 kts 203°
2026-05-01 12:36 50.20718 3.58393 43359 ft 452 kts 203°
2026-05-01 12:36 50.17822 3.56445 43705 ft 453 kts 204°
2026-05-01 12:36 50.14921 3.54498 44070 ft 454 kts 204°
2026-05-01 12:37 50.12015 3.52550 44401 ft 455 kts 204°
2026-05-01 12:37 50.09103 3.50601 44735 ft 457 kts 204°
2026-05-01 12:37 50.06181 3.48647 45041 ft 457 kts 204°
2026-05-01 12:37 50.03250 3.46688 45216 ft 461 kts 204°
2026-05-01 12:38 49.97252 3.42692 45209 ft 476 kts 204°
2026-05-01 12:38 49.91089 3.38597 45212 ft 490 kts 204°
2026-05-01 12:39 49.84743 3.34390 45205 ft 499 kts 204°
2026-05-01 12:39 49.78266 3.30280 45206 ft 503 kts 201°
2026-05-01 12:40 49.71676 3.26391 45207 ft 511 kts 202°
2026-05-01 12:40 49.65008 3.22446 45192 ft 516 kts 202°
2026-05-01 12:41 49.58274 3.18495 45196 ft 520 kts 201°
2026-05-01 12:41 49.51499 3.14514 45194 ft 521 kts 201°
2026-05-01 12:42 49.44723 3.10560 45189 ft 519 kts 202°
2026-05-01 12:42 49.37995 3.06631 45184 ft 517 kts 202°
2026-05-01 12:43 49.31268 3.02724 45182 ft 517 kts 201°
2026-05-01 12:43 49.24542 2.98825 45177 ft 517 kts 201°
2026-05-01 12:44 49.17810 2.94935 45176 ft 517 kts 202°
2026-05-01 12:45 49.04344 2.87187 45167 ft 517 kts 201°
2026-05-01 12:45 48.97606 2.83327 45171 ft 518 kts 201°
2026-05-01 12:46 48.90853 2.79470 45169 ft 518 kts 202°
2026-05-01 12:46 48.84109 2.75629 45155 ft 518 kts 202°
2026-05-01 12:47 48.77359 2.71794 45135 ft 518 kts 201°
2026-05-01 12:47 48.70672 2.68011 45119 ft 509 kts 202°
2026-05-01 12:48 48.64015 2.64247 45125 ft 513 kts 202°
2026-05-01 12:48 48.57298 2.60469 45130 ft 517 kts 202°
2026-05-01 12:49 48.50552 2.56677 45139 ft 518 kts 201°
2026-05-01 12:49 48.43760 2.52878 45125 ft 517 kts 201°
2026-05-01 12:50 48.37015 2.49110 45118 ft 517 kts 202°
2026-05-01 12:50 48.30270 2.45355 45113 ft 517 kts 202°
2026-05-01 12:51 48.23535 2.41616 45107 ft 517 kts 201°
2026-05-01 12:52 48.13402 2.36078 45088 ft 518 kts 198°
2026-05-01 12:52 48.02800 2.32677 45112 ft 520 kts 193°
2026-05-01 12:53 47.92145 2.29228 45106 ft 520 kts 193°
2026-05-01 12:54 47.85093 2.27044 45112 ft 520 kts 194°
2026-05-01 12:54 47.74478 2.23689 45093 ft 520 kts 193°
2026-05-01 12:55 47.63905 2.20370 45083 ft 520 kts 193°
2026-05-01 12:56 47.56775 2.18156 45077 ft 520 kts 193°
2026-05-01 12:56 47.49690 2.15944 45066 ft 520 kts 193°
2026-05-01 12:57 47.42604 2.13749 45069 ft 520 kts 193°
2026-05-01 12:57 47.32027 2.10476 45061 ft 520 kts 193°
2026-05-01 12:58 47.24954 2.08298 45068 ft 519 kts 193°
2026-05-01 12:59 47.14350 2.05041 45068 ft 519 kts 193°
2026-05-01 12:59 47.03725 2.01790 45081 ft 517 kts 193°
2026-05-01 13:00 46.93149 1.98568 45092 ft 517 kts 193°
2026-05-01 13:01 46.82588 1.95363 45089 ft 516 kts 193°
2026-05-01 13:02 46.72077 1.92187 45093 ft 517 kts 193°
2026-05-01 13:07 45.96262 1.68952 45115 ft 512 kts 194°
2026-05-01 13:08 45.89294 1.66753 45114 ft 512 kts 194°
2026-05-01 13:08 45.82326 1.64553 45116 ft 512 kts 194°
2026-05-01 13:09 45.75368 1.62369 45119 ft 511 kts 194°
2026-05-01 13:09 45.68426 1.60189 45120 ft 511 kts 194°
2026-05-01 13:10 45.61484 1.58020 45118 ft 511 kts 194°
2026-05-01 13:10 45.54538 1.55851 45129 ft 511 kts 194°
2026-05-01 13:11 45.47583 1.53687 45121 ft 512 kts 194°
2026-05-01 13:11 45.40609 1.51522 45125 ft 513 kts 194°
2026-05-01 13:12 45.33639 1.49364 45124 ft 513 kts 194°
2026-05-01 13:12 45.26646 1.47204 45118 ft 514 kts 194°
2026-05-01 13:13 45.19654 1.45050 45128 ft 514 kts 194°
2026-05-01 13:13 45.12664 1.42901 45124 ft 514 kts 194°
2026-05-01 13:14 45.05668 1.40758 45130 ft 515 kts 194°
2026-05-01 13:14 44.98664 1.38615 45126 ft 515 kts 194°
2026-05-01 13:15 44.91664 1.36481 45118 ft 515 kts 194°
2026-05-01 13:15 44.84664 1.34351 45116 ft 515 kts 194°
2026-05-01 13:16 44.77660 1.32224 45118 ft 514 kts 194°
2026-05-01 13:16 44.70665 1.30107 45124 ft 514 kts 194°
2026-05-01 13:17 44.56658 1.25882 45112 ft 515 kts 194°
2026-05-01 13:18 44.46151 1.22713 45114 ft 514 kts 195°
2026-05-01 13:18 44.39269 1.20051 45101 ft 512 kts 198°
2026-05-01 13:19 44.32424 1.17380 45101 ft 510 kts 197°
2026-05-01 13:20 44.22163 1.13405 45102 ft 510 kts 198°
2026-05-01 13:20 44.15327 1.10778 45100 ft 510 kts 198°
2026-05-01 13:21 44.05058 1.06816 45089 ft 511 kts 198°
2026-05-01 13:21 43.98212 1.04194 45095 ft 511 kts 198°
2026-05-01 13:22 43.91343 1.01559 45090 ft 512 kts 198°
2026-05-01 13:22 43.84468 0.98936 45093 ft 513 kts 198°
2026-05-01 13:23 43.77589 0.96312 45093 ft 513 kts 198°
2026-05-01 13:23 43.70703 0.93695 45092 ft 513 kts 198°
2026-05-01 13:24 43.63816 0.91082 45093 ft 513 kts 198°
2026-05-01 13:25 43.53495 0.87179 45090 ft 512 kts 198°
2026-05-01 13:25 43.46620 0.84586 45095 ft 512 kts 198°
2026-05-01 13:26 43.39751 0.82003 45093 ft 511 kts 198°
2026-05-01 13:26 43.32945 0.79448 45097 ft 510 kts 198°
2026-05-01 13:27 43.26094 0.76884 45097 ft 510 kts 198°
2026-05-01 13:27 43.15830 0.73052 45105 ft 509 kts 198°
2026-05-01 13:28 43.05546 0.69225 45113 ft 509 kts 198°
2026-05-01 13:29 42.91886 0.64164 45116 ft 508 kts 198°
2026-05-01 13:31 42.71418 0.56623 45131 ft 508 kts 198°
2026-05-01 13:32 42.54027 0.51914 45118 ft 510 kts 194°
2026-05-01 13:33 42.36595 0.47455 45102 ft 509 kts 194°
2026-05-01 13:34 42.22667 0.43911 45077 ft 509 kts 194°
2026-05-01 13:35 42.12236 0.41269 45076 ft 508 kts 194°
2026-05-01 13:36 42.01826 0.38636 45053 ft 507 kts 194°
2026-05-01 13:36 41.91434 0.36017 45044 ft 506 kts 194°
2026-05-01 13:37 41.85684 0.34573 45042 ft 506 kts 194°
2026-05-01 13:37 41.77599 0.32546 45042 ft 506 kts 194°
2026-05-01 13:38 41.67204 0.29947 45041 ft 507 kts 194°
2026-05-01 13:39 41.60269 0.28219 45039 ft 507 kts 194°
2026-05-01 13:39 41.53325 0.26492 45032 ft 507 kts 194°
2026-05-01 13:40 41.46489 0.24800 44319 ft 490 kts 194°
2026-05-01 13:40 41.43114 0.23961 42921 ft 491 kts 194°
2026-05-01 13:40 41.39836 0.23151 42477 ft 470 kts 194°
2026-05-01 13:40 41.36612 0.22354 41098 ft 473 kts 194°
2026-05-01 13:41 41.33436 0.21568 40405 ft 458 kts 194°
2026-05-01 13:41 41.30334 0.20806 39478 ft 444 kts 195°
2026-05-01 13:41 41.27305 0.20060 38552 ft 441 kts 195°
2026-05-01 13:41 41.24315 0.19320 37655 ft 434 kts 195°
2026-05-01 13:42 41.21363 0.18592 36795 ft 428 kts 195°
2026-05-01 13:42 41.18443 0.17874 35949 ft 426 kts 195°
2026-05-01 13:42 41.15527 0.17157 35103 ft 428 kts 195°
2026-05-01 13:42 41.12602 0.16378 34233 ft 429 kts 198°
2026-05-01 13:43 41.09745 0.15228 33346 ft 431 kts 201°
2026-05-01 13:43 41.06866 0.14044 32496 ft 437 kts 200°
2026-05-01 13:43 41.03933 0.12876 31619 ft 442 kts 200°
2026-05-01 13:43 41.00974 0.11698 30735 ft 445 kts 200°
2026-05-01 13:44 40.98008 0.10496 29805 ft 446 kts 201°
2026-05-01 13:44 40.95061 0.09301 28923 ft 440 kts 200°
2026-05-01 13:44 40.92153 0.08136 28055 ft 434 kts 200°
2026-05-01 13:44 40.89282 0.06987 27199 ft 428 kts 200°
2026-05-01 13:45 40.86445 0.05846 26352 ft 425 kts 200°
2026-05-01 13:45 40.84578 0.05094 25792 ft 422 kts 200°
2026-05-01 13:45 40.81779 0.03972 24958 ft 419 kts 200°
2026-05-01 13:45 40.78999 0.02862 24125 ft 416 kts 200°
2026-05-01 13:46 40.76239 0.01759 23245 ft 412 kts 200°
2026-05-01 13:46 40.73522 0.00671 22447 ft 405 kts 200°
2026-05-01 13:46 40.70847 -0.00398 21644 ft 400 kts 199°
2026-05-01 13:46 40.68194 -0.01456 20849 ft 397 kts 199°
2026-05-01 13:47 40.65563 -0.02506 20063 ft 394 kts 199°
2026-05-01 13:47 40.62949 -0.03546 19287 ft 391 kts 199°
2026-05-01 13:47 40.60353 -0.04579 18512 ft 388 kts 199°
2026-05-01 13:47 40.57776 -0.05605 17704 ft 383 kts 199°
2026-05-01 13:48 40.55254 -0.06607 16960 ft 377 kts 199°
2026-05-01 13:48 40.52749 -0.07601 16206 ft 372 kts 199°
2026-05-01 13:48 40.50284 -0.08579 15469 ft 368 kts 199°
2026-05-01 13:48 40.47849 -0.09547 14742 ft 364 kts 199°
2026-05-01 13:49 40.45433 -0.10504 14016 ft 361 kts 199°
2026-05-01 13:49 40.43036 -0.11452 13270 ft 358 kts 199°
2026-05-01 13:49 40.40671 -0.12387 12563 ft 353 kts 199°
2026-05-01 13:49 40.38331 -0.13313 11862 ft 347 kts 199°
2026-05-01 13:50 40.36076 -0.14202 11190 ft 330 kts 200°
2026-05-01 13:50 40.33921 -0.15052 10542 ft 313 kts 200°
2026-05-01 13:50 40.32002 -0.15806 9982 ft 285 kts 200°
2026-05-01 13:50 40.30054 -0.16586 9358 ft 296 kts 199°
2026-05-01 13:51 40.28096 -0.17357 8768 ft 292 kts 200°
2026-05-01 13:51 40.26170 -0.18108 8206 ft 284 kts 199°
2026-05-01 13:51 40.24343 -0.18815 8066 ft 262 kts 198°
2026-05-01 13:51 40.22630 -0.19387 8059 ft 249 kts 196°
2026-05-01 13:52 40.20917 -0.19935 8070 ft 255 kts 195°
2026-05-01 13:52 40.19190 -0.20486 8065 ft 255 kts 196°
2026-05-01 13:52 40.17499 -0.21035 7841 ft 243 kts 196°
2026-05-01 13:52 40.15844 -0.21569 7092 ft 244 kts 196°
2026-05-01 13:53 40.14183 -0.22108 6502 ft 248 kts 196°
2026-05-01 13:53 40.11020 -0.23140 5721 ft 221 kts 195°
2026-05-01 13:53 40.09529 -0.23041 5080 ft 219 kts 159°
2026-05-01 13:54 40.08501 -0.21666 4714 ft 209 kts 115°
2026-05-01 13:54 40.08140 -0.19955 4835 ft 184 kts 105°
2026-05-01 13:54 40.08009 -0.18376 4862 ft 176 kts 80°
2026-05-01 13:54 40.08684 -0.17052 4920 ft 177 kts 50°
2026-05-01 13:55 40.09452 -0.15748 5071 ft 184 kts 56°
2026-05-01 13:55 40.10161 -0.14395 5004 ft 176 kts 57°
2026-05-01 13:55 40.10839 -0.13086 4776 ft 170 kts 58°
2026-05-01 13:55 40.11508 -0.11794 4548 ft 173 kts 57°
2026-05-01 13:56 40.12180 -0.10494 4312 ft 172 kts 58°
2026-05-01 13:56 40.12823 -0.09256 4105 ft 159 kts 59°
2026-05-01 13:56 40.13459 -0.08028 3895 ft 166 kts 59°
2026-05-01 13:56 40.14105 -0.06774 3686 ft 165 kts 58°
2026-05-01 13:57 40.14743 -0.05539 3473 ft 163 kts 58°
2026-05-01 13:57 40.15379 -0.04311 3248 ft 160 kts 60°
2026-05-01 13:57 40.15995 -0.03118 3042 ft 160 kts 59°
2026-05-01 13:57 40.16615 -0.01922 2816 ft 150 kts 58°
2026-05-01 13:58 40.17169 -0.00854 2630 ft 135 kts 60°
2026-05-01 13:58 40.17685 0.00145 2445 ft 131 kts 57°
2026-05-01 13:58 40.18187 0.01114 2270 ft 127 kts 56°
2026-05-01 13:58 40.18673 0.02049 2120 ft 127 kts 57°
2026-05-01 13:59 40.19171 0.03015 1952 ft 126 kts 56°
2026-05-01 13:59 40.19695 0.03916 1742 ft 129 kts 52°
2026-05-01 13:59 40.20259 0.04836 1423 ft 129 kts 59°
2026-05-01 13:59 40.20714 0.05840 1233 ft 128 kts 65°
2026-05-01 14:00 40.21145 0.06799 1188 ft 112 kts 59°
2026-05-01 14:00 40.21410 0.07365 1187 ft 28 kts 59°
2026-05-01 14:00 40.21441 0.07442 1187 ft 4 kts 46°
2026-05-01 14:00 40.21442 0.07404 1187 ft 9 kts 238°
2026-05-01 14:01 40.21385 0.07296 1187 ft 17 kts 236°
2026-05-01 14:01 40.21319 0.07168 1187 ft 17 kts 236°
2026-05-01 14:01 40.21257 0.07042 1187 ft 16 kts 237°
2026-05-01 14:01 40.21174 0.06878 1187 ft 27 kts 236°
2026-05-01 14:02 40.21069 0.06678 1187 ft 25 kts 237°
2026-05-01 14:02 40.20975 0.06485 1187 ft 24 kts 238°
2026-05-01 14:02 40.20886 0.06301 1187 ft 24 kts 239°
2026-05-01 14:02 40.20802 0.06120 1187 ft 23 kts 237°
2026-05-01 14:03 40.20682 0.06100 1187 ft 17 kts 152°
2026-05-01 14:03 40.20636 0.06198 1187 ft 11 kts 75°
2026-05-01 14:03 40.20695 0.06314 1187 ft 17 kts 58°
2026-05-01 14:03 40.20680 0.06411 1187 ft 10 kts 144°
2026-05-01 14:04 40.20653 0.06432 1187 ft 0 kts 149°
2026-05-01 14:04 40.20648 0.06437 1187 ft 5 kts 143°
2026-05-01 14:04 40.20650 0.06521 1187 ft 14 kts 55°
2026-05-01 14:04 40.20688 0.06597 1187 ft 16 kts 59°
2026-05-01 14:05 40.20726 0.06711 1187 ft 6 kts 148°
2026-05-01 14:05 40.20675 0.06752 1187 ft 10 kts 147°
2026-05-01 14:05 40.20665 0.06759 1187 ft 0 kts 149°